sat.trackr.live / text

‹ back to catalog

CENTISPACE-1 S10

NORAD 62579 · 2025-007E

PAYLOAD ACTIVE UNKNOWN

§ Identity

Operator
Country
PRC
Launch date
2025-01-13
Launch site
YSLA
Launch vehicle
Mass (kg)
RCS (m²)

External: N2YO · Heavens-Above · Gunter

§ Orbital elements

Epoch: 2026-05-25T02:28:26.429088Z

Period
104.30 min
Inclination
54.9903°
Eccentricity
0.0012971
Mean motion
13.80606146 rev/d
Perigee alt
952.2 km
Apogee alt
971.3 km
Semi-major
7,339.9 km
B*
6.8380e-5
RAAN
12.1828°
Arg perigee
54.9300°
Mean anomaly
305.2871°
Rev number
7,154

§ Raw data

CENTISPACE-1 S101 62579U 25007E   26145.10308367 -.00000068  00000+0  68380-4 0  99922 62579  54.9903  12.1828 0012971  54.9300 305.2871 13.80606146 71542

JSON: /api/v1/satellites/62579 · /tle

For live sub-satellite position, see the globe view (requires WebGL).

§ Visibility from observer

Set your observer location to see the next 7 days of passes ≥ 10°. The values pass through the URL so the page stays shareable.

No JS? Fill the form by hand. The geolocation button needs JavaScript.

§ Radio — SatNOGS DB

ModeDescriptionDownlinkUplink
BPSK S-band telemetry 2.227 GHz
BPSK S-band telemetry 2.247 GHz

2 transmitters · refreshed weekly from db.satnogs.org